Time,TemperatureF,DewpointF,PressureIn,WindDirection,WindDirectionDegrees,WindSpeedMPH,WindSpeedGustMPH,Humidity,HourlyPrecipIn,Conditions,Clouds,dailyrainin,SoftwareType,DateUTC
2013-06-06 00:03:00,73.0,72.0,-100.00,ENE,72,4.0,11.0,97,0.34,,,2.97,,2013-06-06 04:03:00,
2013-06-06 00:13:00,73.0,72.0,-100.00,ENE,72,4.0,11.0,97,0.34,,,2.97,,2013-06-06 04:13:00,
2013-06-06 00:42:00,73.0,72.0,-100.00,SW,220,2.0,9.0,98,0.22,,,3.19,,2013-06-06 04:42:00,
2013-06-06 00:53:00,73.0,72.0,-100.00,SW,220,2.0,9.0,98,0.22,,,3.19,,2013-06-06 04:53:00,
2013-06-06 01:02:00,73.0,72.0,-100.00,SW,220,2.0,9.0,98,0.22,,,3.19,,2013-06-06 05:02:00,
2013-06-06 01:12:00,73.0,72.0,-100.00,SW,220,2.0,9.0,98,0.22,,,3.19,,2013-06-06 05:12:00,
2013-06-06 01:22:00,73.0,72.0,-100.00,SW,220,2.0,9.0,98,0.22,,,3.19,,2013-06-06 05:22:00,
2013-06-06 01:42:00,73.0,72.0,-100.00,East,95,2.0,3.0,98,0.00,,,3.19,,2013-06-06 05:42:00,
2013-06-06 01:52:00,73.0,72.0,-100.00,East,95,2.0,3.0,98,0.00,,,3.19,,2013-06-06 05:52:00,
2013-06-06 02:02:00,73.0,72.0,-100.00,East,95,2.0,3.0,98,0.00,,,3.19,,2013-06-06 06:02:00,
2013-06-06 02:12:00,73.0,72.0,-100.00,East,95,2.0,3.0,98,0.00,,,3.19,,2013-06-06 06:12:00,
2013-06-06 02:22:00,73.0,72.0,-100.00,East,95,2.0,3.0,98,0.00,,,3.19,,2013-06-06 06:22:00,
2013-06-06 02:42:00,72.0,71.0,-100.00,ESE,112,1.0,3.0,98,0.00,,,3.19,,2013-06-06 06:42:00,
2013-06-06 02:52:00,72.0,71.0,-100.00,ESE,112,1.0,3.0,98,0.00,,,3.19,,2013-06-06 06:52:00,
2013-06-06 03:02:00,72.0,71.0,-100.00,ESE,112,1.0,3.0,98,0.00,,,3.19,,2013-06-06 07:02:00,
2013-06-06 03:12:00,72.0,71.0,-100.00,ESE,112,1.0,3.0,98,0.00,,,3.19,,2013-06-06 07:12:00,
2013-06-06 03:22:00,72.0,71.0,-100.00,ESE,112,1.0,3.0,98,0.00,,,3.19,,2013-06-06 07:22:00,
2013-06-06 03:42:00,73.0,72.0,-100.00,East,98,0.0,3.0,98,0.00,,,3.19,,2013-06-06 07:42:00,
2013-06-06 03:52:00,73.0,72.0,-100.00,East,98,0.0,3.0,98,0.00,,,3.19,,2013-06-06 07:52:00,
2013-06-06 04:02:00,73.0,72.0,-100.00,East,98,0.0,3.0,98,0.00,,,3.19,,2013-06-06 08:02:00,
2013-06-06 04:12:00,73.0,72.0,-100.00,East,98,0.0,3.0,98,0.00,,,3.19,,2013-06-06 08:12:00,
2013-06-06 04:22:00,73.0,72.0,-100.00,East,98,0.0,3.0,98,0.00,,,3.19,,2013-06-06 08:22:00,
2013-06-06 04:42:00,73.0,72.0,-100.00,ESE,105,1.0,4.0,98,0.00,,,3.19,,2013-06-06 08:42:00,
2013-06-06 04:52:00,73.0,72.0,-100.00,ESE,105,1.0,4.0,98,0.00,,,3.19,,2013-06-06 08:52:00,
2013-06-06 05:02:00,73.0,72.0,-100.00,ESE,105,1.0,4.0,98,0.00,,,3.19,,2013-06-06 09:02:00,
2013-06-06 05:12:00,73.0,72.0,-100.00,ESE,105,1.0,4.0,98,0.00,,,3.19,,2013-06-06 09:12:00,
2013-06-06 05:22:00,73.0,72.0,-100.00,ESE,105,1.0,4.0,98,0.00,,,3.19,,2013-06-06 09:22:00,
2013-06-06 05:23:00,72.0,71.0,-100.00,ESE,116,0.0,2.0,98,0.00,,,3.19,,2013-06-06 09:23:00,
2013-06-06 05:43:00,72.0,71.0,-100.00,ESE,116,0.0,2.0,98,0.00,,,3.19,,2013-06-06 09:43:00,
2013-06-06 05:53:00,72.0,71.0,-100.00,ESE,116,0.0,2.0,98,0.00,,,3.19,,2013-06-06 09:53:00,
2013-06-06 06:03:00,72.0,71.0,-100.00,ESE,116,0.0,2.0,98,0.00,,,3.19,,2013-06-06 10:03:00,
2013-06-06 06:12:00,72.0,71.0,-100.00,ESE,116,0.0,2.0,98,0.00,,,3.19,,2013-06-06 10:12:00,
2013-06-06 06:42:00,71.0,70.0,-100.00,SSW,211,0.0,0.0,98,0.00,,,2.64,,2013-06-06 10:42:00,
2013-06-06 06:53:00,71.0,70.0,-100.00,SSW,211,0.0,0.0,98,0.00,,,2.64,,2013-06-06 10:53:00,
2013-06-06 07:02:00,71.0,70.0,-100.00,SSW,211,0.0,0.0,98,0.00,,,2.64,,2013-06-06 11:02:00,
2013-06-06 07:12:00,71.0,70.0,-100.00,SSW,211,0.0,0.0,98,0.00,,,2.64,,2013-06-06 11:12:00,
2013-06-06 07:22:00,71.0,70.0,-100.00,SSW,211,0.0,0.0,98,0.00,,,2.64,,2013-06-06 11:22:00,
2013-06-06 07:23:00,72.0,71.0,-100.00,SSE,154,0.0,2.0,98,0.00,,,2.64,,2013-06-06 11:23:00,
2013-06-06 07:42:00,72.0,71.0,-100.00,SSE,154,0.0,2.0,98,0.00,,,2.64,,2013-06-06 11:42:00,
2013-06-06 07:52:00,72.0,71.0,-100.00,SSE,154,0.0,2.0,98,0.00,,,2.64,,2013-06-06 11:52:00,
2013-06-06 08:03:00,72.0,71.0,-100.00,SSE,154,0.0,2.0,98,0.00,,,2.64,,2013-06-06 12:03:00,
2013-06-06 08:13:00,72.0,71.0,-100.00,SSE,154,0.0,2.0,98,0.00,,,2.64,,2013-06-06 12:13:00,
2013-06-06 08:23:00,75.0,74.0,-100.00,SSE,158,1.0,3.0,96,0.00,,,2.63,,2013-06-06 12:23:00,
2013-06-06 08:43:00,75.0,74.0,-100.00,SSE,158,1.0,3.0,96,0.00,,,2.63,,2013-06-06 12:43:00,
2013-06-06 08:53:00,75.0,74.0,-100.00,SSE,158,1.0,3.0,96,0.00,,,2.63,,2013-06-06 12:53:00,
2013-06-06 09:03:00,75.0,74.0,-100.00,SSE,158,1.0,3.0,96,0.00,,,2.63,,2013-06-06 13:03:00,
2013-06-06 09:13:00,75.0,74.0,-100.00,SSE,158,1.0,3.0,96,0.00,,,2.63,,2013-06-06 13:13:00,
2013-06-06 09:23:00,76.0,73.0,-100.00,SSE,168,1.0,2.0,91,0.00,,,2.63,,2013-06-06 13:23:00,
2013-06-06 09:43:00,76.0,73.0,-100.00,SSE,168,1.0,2.0,91,0.00,,,2.63,,2013-06-06 13:43:00,
2013-06-06 09:53:00,76.0,73.0,-100.00,SSE,168,1.0,2.0,91,0.00,,,2.63,,2013-06-06 13:53:00,
2013-06-06 10:03:00,76.0,73.0,-100.00,SSE,168,1.0,2.0,91,0.00,,,2.63,,2013-06-06 14:03:00,
2013-06-06 10:13:00,76.0,73.0,-100.00,SSE,168,1.0,2.0,91,0.00,,,2.63,,2013-06-06 14:13:00,
2013-06-06 10:23:00,78.0,73.0,-100.00,South,179,1.0,4.0,85,0.00,,,2.63,,2013-06-06 14:23:00,
2013-06-06 10:43:00,78.0,73.0,-100.00,South,179,1.0,4.0,85,0.00,,,2.63,,2013-06-06 14:43:00,
2013-06-06 10:53:00,78.0,73.0,-100.00,South,179,1.0,4.0,85,0.00,,,2.63,,2013-06-06 14:53:00,
2013-06-06 11:03:00,78.0,73.0,-100.00,South,179,1.0,4.0,85,0.00,,,2.63,,2013-06-06 15:03:00,
2013-06-06 11:13:00,78.0,73.0,-100.00,South,179,1.0,4.0,85,0.00,,,2.63,,2013-06-06 15:13:00,
2013-06-06 11:23:00,79.0,73.0,-100.00,South,187,1.0,3.0,83,0.00,,,2.63,,2013-06-06 15:23:00,
2013-06-06 11:43:00,79.0,73.0,-100.00,South,187,1.0,3.0,83,0.00,,,2.63,,2013-06-06 15:43:00,
2013-06-06 11:53:00,79.0,73.0,-100.00,South,187,1.0,3.0,83,0.00,,,2.63,,2013-06-06 15:53:00,
2013-06-06 12:03:00,79.0,73.0,-100.00,South,187,1.0,3.0,83,0.00,,,2.63,,2013-06-06 16:03:00,
2013-06-06 12:13:00,79.0,73.0,-100.00,South,187,1.0,3.0,83,0.00,,,2.63,,2013-06-06 16:13:00,
2013-06-06 12:23:00,80.0,74.0,-100.00,SE,140,2.0,6.0,81,0.00,,,2.54,,2013-06-06 16:23:00,
2013-06-06 12:44:00,80.0,74.0,-100.00,SE,140,2.0,6.0,81,0.00,,,2.54,,2013-06-06 16:44:00,
2013-06-06 12:53:00,80.0,74.0,-100.00,SE,140,2.0,6.0,81,0.00,,,2.54,,2013-06-06 16:53:00,
2013-06-06 13:03:00,80.0,74.0,-100.00,SE,140,2.0,6.0,81,0.00,,,2.54,,2013-06-06 17:03:00,
2013-06-06 13:13:00,80.0,74.0,-100.00,SE,140,2.0,6.0,81,0.00,,,2.54,,2013-06-06 17:13:00,
2013-06-06 13:23:00,74.0,72.0,-100.00,ESE,105,1.0,11.0,95,0.29,,,2.64,,2013-06-06 17:23:00,
2013-06-06 13:43:00,74.0,72.0,-100.00,ESE,105,1.0,11.0,95,0.29,,,2.64,,2013-06-06 17:43:00,
2013-06-06 13:53:00,74.0,72.0,-100.00,ESE,105,1.0,11.0,95,0.29,,,2.64,,2013-06-06 17:53:00,
2013-06-06 14:03:00,74.0,72.0,-100.00,ESE,105,1.0,11.0,95,0.29,,,2.64,,2013-06-06 18:03:00,
2013-06-06 14:13:00,74.0,72.0,-100.00,ESE,105,1.0,11.0,95,0.29,,,2.64,,2013-06-06 18:13:00,
2013-06-06 14:23:00,73.0,71.0,-100.00,ENE,63,1.0,12.0,94,0.20,,,2.83,,2013-06-06 18:23:00,
2013-06-06 14:43:00,73.0,71.0,-100.00,ENE,63,1.0,12.0,94,0.20,,,2.83,,2013-06-06 18:43:00,
2013-06-06 14:53:00,73.0,71.0,-100.00,ENE,63,1.0,12.0,94,0.20,,,2.83,,2013-06-06 18:53:00,
2013-06-06 15:03:00,73.0,71.0,-100.00,ENE,63,1.0,12.0,94,0.20,,,2.83,,2013-06-06 19:03:00,
2013-06-06 15:13:00,73.0,71.0,-100.00,ENE,63,1.0,12.0,94,0.20,,,2.83,,2013-06-06 19:13:00,
2013-06-06 15:23:00,77.0,74.0,-100.00,ESE,105,2.0,7.0,91,0.00,,,2.83,,2013-06-06 19:23:00,
2013-06-06 15:43:00,77.0,74.0,-100.00,ESE,105,2.0,7.0,91,0.00,,,2.83,,2013-06-06 19:43:00,
2013-06-06 15:53:00,77.0,74.0,-100.00,ESE,105,2.0,7.0,91,0.00,,,2.83,,2013-06-06 19:53:00,
2013-06-06 16:03:00,77.0,74.0,-100.00,ESE,105,2.0,7.0,91,0.00,,,2.83,,2013-06-06 20:03:00,
2013-06-06 16:13:00,77.0,74.0,-100.00,ESE,105,2.0,7.0,91,0.00,,,2.83,,2013-06-06 20:13:00,
2013-06-06 16:23:00,75.0,73.0,-100.00,SSE,148,1.0,8.0,94,0.04,,,2.86,,2013-06-06 20:23:00,
2013-06-06 16:43:00,75.0,73.0,-100.00,SSE,148,1.0,8.0,94,0.04,,,2.86,,2013-06-06 20:43:00,
2013-06-06 16:53:00,75.0,73.0,-100.00,SSE,148,1.0,8.0,94,0.04,,,2.86,,2013-06-06 20:53:00,
2013-06-06 17:03:00,75.0,73.0,-100.00,SSE,148,1.0,8.0,94,0.04,,,2.86,,2013-06-06 21:03:00,
2013-06-06 17:13:00,75.0,73.0,-100.00,SSE,148,1.0,8.0,94,0.04,,,2.86,,2013-06-06 21:13:00,
2013-06-06 17:23:00,76.0,74.0,-100.00,East,101,3.0,8.0,92,0.01,,,2.87,,2013-06-06 21:23:00,
2013-06-06 17:44:00,76.0,74.0,-100.00,East,101,3.0,8.0,92,0.01,,,2.87,,2013-06-06 21:44:00,
2013-06-06 17:53:00,76.0,74.0,-100.00,East,101,3.0,8.0,92,0.01,,,2.87,,2013-06-06 21:53:00,
2013-06-06 18:03:00,76.0,74.0,-100.00,East,101,3.0,8.0,92,0.01,,,2.87,,2013-06-06 22:03:00,
2013-06-06 18:13:00,76.0,74.0,-100.00,East,101,3.0,8.0,92,0.01,,,2.87,,2013-06-06 22:13:00,
2013-06-06 18:43:00,75.0,73.0,-100.00,ESE,112,3.0,9.0,93,0.02,,,2.51,,2013-06-06 22:43:00,
2013-06-06 18:53:00,75.0,73.0,-100.00,ESE,112,3.0,9.0,93,0.02,,,2.51,,2013-06-06 22:53:00,
2013-06-06 19:03:00,75.0,73.0,-100.00,ESE,112,3.0,9.0,93,0.02,,,2.51,,2013-06-06 23:03:00,
2013-06-06 19:13:00,75.0,73.0,-100.00,ESE,112,3.0,9.0,93,0.02,,,2.51,,2013-06-06 23:13:00,
2013-06-06 19:22:00,75.0,73.0,-100.00,ESE,112,3.0,9.0,93,0.02,,,2.51,,2013-06-06 23:22:00,
2013-06-06 19:43:00,73.0,71.0,-100.00,ESE,113,4.0,12.0,95,0.22,,,2.61,,2013-06-06 23:43:00,
2013-06-06 19:52:00,73.0,71.0,-100.00,ESE,113,4.0,12.0,95,0.22,,,2.61,,2013-06-06 23:52:00,
2013-06-06 20:02:00,73.0,71.0,-100.00,ESE,113,4.0,12.0,95,0.22,,,2.61,,2013-06-07 00:02:00,
2013-06-06 20:13:00,73.0,71.0,-100.00,ESE,113,4.0,12.0,95,0.22,,,2.61,,2013-06-07 00:13:00,
2013-06-06 20:22:00,73.0,71.0,-100.00,ESE,113,4.0,12.0,95,0.22,,,2.61,,2013-06-07 00:22:00,
2013-06-06 20:43:00,72.0,71.0,-100.00,ESE,104,3.0,9.0,97,0.14,,,2.68,,2013-06-07 00:43:00,
2013-06-06 20:52:00,72.0,71.0,-100.00,ESE,104,3.0,9.0,97,0.14,,,2.68,,2013-06-07 00:52:00,
2013-06-06 21:03:00,72.0,71.0,-100.00,ESE,104,3.0,9.0,97,0.14,,,2.68,,2013-06-07 01:03:00,
2013-06-06 21:12:00,72.0,71.0,-100.00,ESE,104,3.0,9.0,97,0.14,,,2.68,,2013-06-07 01:12:00,
2013-06-06 21:22:00,72.0,71.0,-100.00,ESE,104,3.0,9.0,97,0.14,,,2.68,,2013-06-07 01:22:00,
2013-06-06 21:42:00,72.0,71.0,-100.00,East,98,8.0,14.0,98,0.48,,,2.86,,2013-06-07 01:42:00,
2013-06-06 21:53:00,72.0,71.0,-100.00,East,98,8.0,14.0,98,0.48,,,2.86,,2013-06-07 01:53:00,
2013-06-06 22:02:00,72.0,71.0,-100.00,East,98,8.0,14.0,98,0.48,,,2.86,,2013-06-07 02:02:00,
2013-06-06 22:12:00,72.0,71.0,-100.00,East,98,8.0,14.0,98,0.48,,,2.86,,2013-06-07 02:12:00,
2013-06-06 22:22:00,72.0,71.0,-100.00,East,98,8.0,14.0,98,0.48,,,2.86,,2013-06-07 02:22:00,
2013-06-06 22:42:00,72.0,71.0,-100.00,SE,144,3.0,10.0,97,0.49,,,2.45,,2013-06-07 02:42:00,
2013-06-06 22:52:00,72.0,71.0,-100.00,SE,144,3.0,10.0,97,0.49,,,2.45,,2013-06-07 02:52:00,
2013-06-06 23:02:00,72.0,71.0,-100.00,SE,144,3.0,10.0,97,0.49,,,2.45,,2013-06-07 03:02:00,
2013-06-06 23:12:00,72.0,71.0,-100.00,SE,144,3.0,10.0,97,0.49,,,2.45,,2013-06-07 03:12:00,
2013-06-06 23:22:00,72.0,71.0,-100.00,SE,144,3.0,10.0,97,0.49,,,2.45,,2013-06-07 03:22:00,
2013-06-06 23:23:00,74.0,73.0,-100.00,East,94,5.0,9.0,97,0.06,,,2.17,,2013-06-07 03:23:00,
2013-06-06 23:44:00,74.0,73.0,-100.00,East,94,5.0,9.0,97,0.06,,,2.17,,2013-06-07 03:44:00,
2013-06-06 23:53:00,74.0,73.0,-100.00,East,94,5.0,9.0,97,0.06,,,2.17,,2013-06-07 03:53:00,